{"data":{"norad_id":65257,"epoch":"2026-05-25T03:17:11.615136Z","epoch_age_seconds":60288,"freshness":"FRESH","line1":"1 65257U 25179Y   26145.13693999  .00003731  00000+0  26251-3 0  9998","line2":"2 65257  97.4494 187.9874 0000860 134.6318 225.4980 15.05648948 43432","mean_motion":15.05648948,"eccentricity":8.6e-5,"inclination_deg":97.4494,"raan_deg":187.9874,"arg_perigee_deg":134.6318,"mean_anomaly_deg":225.498,"bstar":0.00026251,"rev_number":4343,"period_min":95.639823739312,"perigee_km":548.91860292793,"apogee_km":550.11015896546,"semimajor_km":6927.6513809467,"source":"CELESTRAK","updated_at":"2026-05-25T13:38:20.728705Z"}}